Regional Weather Roundup
Issued by NWS Cleveland, OH

Home | Current Version | Previous Version | Graphics & Text | Print | Product List | Glossary On
Versions: 1 2 3 4 5 6 7 8 9 10 11 12 13 14 15 16 17 18 19 20 21 22 23 24 25 26 27 28 29 30 31 32 33 34 35 36 37 38 39 40 41 42 43 44 45 46 47 48 49 50
154
ASUS41 KCLE 232112
RWRCLE
OHIO REGIONAL WEATHER ROUNDUP
NATIONAL WEATHER SERVICE WILMINGTON, OH
400 PM EST FRI FEB 23 2018

NOTE: "FAIR" INDICATES FEW OR NO CLOUDS BELOW 12,000 FEET WITH NO
SIGNIFICANT WEATHER AND/OR OBSTRUCTIONS TO VISIBILITY.

OHZ001>008-015>018-024>027-034-035-043-044-232200-
   NORTHWEST OHIO

CITY           SKY/WX    TMP DP  RH WIND       PRES   REMARKS
DEFIANCE       CLOUDY    50  46  86 W9        30.16R
FINDLAY        CLOUDY    58  50  75 W24G30    30.13S
TOLEDO EXPRESS CLOUDY    51  49  92 W20G31    30.14R
TOLEDO EXEC    CLOUDY    52  48  86 W15G25    30.14R
LIMA           PTSUNNY   57  52  83 W18       30.15R
$$

OHZ009>014-019>023-028>033-038-089-232200-
   NORTHEAST OHIO

CITY           SKY/WX    TMP DP  RH WIND       PRES   REMARKS
CLE-HOPKINS    CLOUDY    62  56  80 SW16G23   30.13S
CLE-LAKEFRONT  CLOUDY    60  54  80 SW10      30.10R
CUY CO. ARPT   PTSUNNY   63  57  82 SW17      30.11S
LORAIN-ELYRIA  CLOUDY    60  51  72 W20G25    30.12R
ASHTABULA      CLOUDY    58  56  93 SW13      30.10S
AKRON-CANTON   CLOUDY    62  56  80 SW12      30.14F
WOOSTER        CLOUDY    60  57  89 SW13      30.15S
MANSFIELD      CLOUDY    60  58  92 SW16      30.14S
YOUNGSTOWN     DRIZZLE   58  57  97 SW14      30.13R FOG
$$

OHZ042-051>053-060>062-070>072-077>081-232200-
  SOUTHWEST OHIO

CITY           SKY/WX    TMP DP  RH WIND       PRES   REMARKS
CINC-COVINGTON CLOUDY    63  59  87 SW8       30.21S
CINC-LUNKEN    CLOUDY    64  60  87 SW9       30.21R
HAMILTON       FAIR      61  60  97 W8        30.21S
DAYTON         CLOUDY    57  54  89 SW16      30.19F
WRIGHT-PAT AFB PTSUNNY   60  56  87 W12       30.17F
DAYTON GENERAL PTSUNNY   60  57  89 W7        30.19S
WILMINGTON     PTSUNNY   63  61  93 W15       30.19S
$$

OHZ036-037-039>041-045>050-054>059-063>069-073>076-082>088-232200-
  CENTRAL AND SOUTHEAST OHIO

CITY           SKY/WX    TMP DP  RH WIND       PRES   REMARKS
COLUMBUS       LGT RAIN  62  61  96 SW9       30.17S
OSU AIRPORT    PTSUNNY   61  60  97 W8        30.17S
BOLTON FIELD   CLOUDY    61  61 100 W7        30.18S
RICKENBACK AFB CLOUDY    62  62 100 SW8       30.18S
NEWARK         CLOUDY    64  59  83 SW14      30.17S
MARION         CLOUDY    60  53  77 SW15G26   30.16R
LANCASTER      LGT RAIN  64  60  87 SW10      30.19S
ZANESVILLE     CLOUDY    66  57  72 W10G18    30.18S
NEW PHILLY     CLOUDY    64  58  80 W10G18    30.17R
$$




USA.gov is the U.S. government's official web portal to all federal, state and local government web resources and services.